Flag for Sudan Weather past 2 weeks in Port Sudan, Sudan

Now
88 °F

Clear.


Feels Like: 98 °F
Forecast: 73 / 97 °F
Wind: 12 mph from Northwest

Location: Jeddah King Abdul Aziz International Airport

Current Time: Sep 30, 2014 at 9:00:03 PM

Latest Report: Sep 30, 2014 at 8:00 PM


Visibility: 10 mi

Pressure: 29.74 "Hg

Humidity: 66%

Dew point: 75 °F

Location of Port SudanLocation

Historic Weather in Port Sudan — Graph

°F

Port Sudan temperature yesterday

Maximum temperature yesterday: 97 °F (at 11:00 AM)
Minimum temperature yesterday: 81 °F (at 6:00 AM)
Average temperature yesterday: 90 °F

Past Weeks' High & Low Weather Summary

 TemperatureHumidityPressure
High100 °F (Sep 18, 1:00 PM)94% (Sep 25, 7:00 AM)29.80 "Hg (Sep 25, 7:00 AM)
Low81 °F (Sep 21, 5:00 AM)29% (Sep 17, 12:00 PM)29.65 "Hg (Sep 16, 5:00 PM)
Average89 °F59%29.71 "Hg
* Reported Sep 15 8:00 PM — Sep 30 8:00 PM, Port Sudan, Weather by CustomWeather, © 2014

Note: Actual official high and low records may vary slightly from our data, if they occured in-between our weather recording intervals... More about our weather records

Advertising

Port Sudan weather history for previous 24 hours

 ConditionsComfort  
Time TempWeatherWind HumidityBarometerVisibility
8:00 PM
Sep 30
88 °FClear.12 mph66%29.74 "Hg10 mi
7:00 PM88 °FClear.14 mph66%29.71 "Hg10 mi
6:00 PM91 °FSunny.16 mph59%29.71 "Hg10 mi
5:00 PM93 °FSunny.16 mph53%29.68 "Hg10 mi
4:00 PM95 °FSunny.16 mph50%29.68 "Hg10 mi
3:00 PM95 °FSunny.12 mph53%29.68 "Hg10 mi
2:00 PM95 °FSunny.14 mph50%29.71 "Hg10 mi
1:00 PM97 °FSunny.14 mph50%29.71 "Hg10 mi
12:00 PM100 °FSunny.6 mph37%29.74 "Hg10 mi
11:00 AM97 °FSunny.12 mph42%29.74 "Hg10 mi
10:00 AM93 °FSunny.9 mph49%29.77 "Hg10 mi
9:00 AM90 °FSunny.7 mph63%29.77 "Hg10 mi
8:00 AM86 °FSunny.5 mph70%29.74 "Hg10 mi
7:00 AM84 °FSunny.5 mph74%29.74 "Hg10 mi
6:00 AM84 °FClear.9 mph74%29.74 "Hg10 mi
5:00 AM84 °FClear.5 mph74%29.71 "Hg10 mi
4:00 AM84 °FClear.5 mph74%29.74 "Hg10 mi
3:00 AM86 °FClear.5 mph70%29.74 "Hg10 mi
2:00 AM86 °FClear.5 mph66%29.71 "Hg10 mi
1:00 AM86 °FClear.5 mph66%29.74 "Hg10 mi
12:00 AM88 °FClear.5 mph62%29.74 "Hg10 mi
11:00 PM
Sep 29
88 °FClear.5 mph62%29.74 "Hg10 mi
10:00 PM90 °FClear.6 mph63%29.77 "Hg10 mi
9:00 PM90 °FClear.14 mph63%29.77 "Hg10 mi
Weather by CustomWeather, © 2014

See weather overviewHow to use our weather pages